Overview Statistics Trail Chart Weather Telemetry Raw packets
 

This is the latest recevied weather packets stored in our database for station/object NR0A-4. If no packets are shown the sender has not sent any weather packets the latest 10 day(s).

<< 48 49 50 51 52 53 54 >>
Time Temp. Humidity Pressure Rain* Wind** Luminosity Snow
1788332403 21.11° C 82% 1011.6 hPa 0 mm - 0 W/m² -
1788332104 21.11° C 83% 1011.7 hPa 0.25 mm - 0 W/m² -
1788331804 21.11° C 84% 1011.6 hPa 0.25 mm - 0 W/m² -
1788331503 21.11° C 84% 1011.7 hPa 0.25 mm - 0 W/m² -
1788331204 21.11° C 84% 1011.6 hPa 0.25 mm - 0 W/m² -
1788330904 21.11° C 85% 1011.6 hPa 0.25 mm - 0 W/m² -
1788330605 21.11° C 85% 1011.6 hPa 0.25 mm - 0 W/m² -
1788330304 21.11° C 85% 1011.6 hPa 0.25 mm - 0 W/m² -
1788330003 21.11° C 84% 1011.7 hPa 0.25 mm - 0 W/m² -
1788329704 21.11° C 84% 1011.8 hPa 0.25 mm - 0 W/m² -
1788329404 21.11° C 83% 1012 hPa 0.25 mm - 0 W/m² -
1788329104 21.11° C 83% 1012.2 hPa 0.25 mm - 0 W/m² -
1788328804 21.67° C 81% 1012.5 hPa 0.25 mm - 0 W/m² -
1788328504 22.22° C 77% 1012.3 hPa 0 mm - 0 W/m² -
1788328204 22.78° C 74% 1013.2 hPa 0 mm - 0 W/m² -
1788327904 22.78° C 75% 1014.5 hPa 0 mm - 0 W/m² -
1788327604 22.78° C 78% 1014.8 hPa 0 mm - 0 W/m² -
1788327304 22.78° C 77% 1014.6 hPa 0 mm - 0 W/m² -
1788327004 22.78° C 76% 1013.7 hPa 0 mm - 0 W/m² -
1788326704 22.78° C 76% 1012.3 hPa 0 mm - 0 W/m² -
1788326405 22.78° C 76% 1011.9 hPa 0 mm - 0 W/m² -
1788326104 22.78° C 76% 1012 hPa 0 mm - 0 W/m² -
1788325804 22.78° C 75% 1012.6 hPa 0 mm - 0 W/m² -
1788325504 22.78° C 73% 1012.7 hPa 0 mm - 0 W/m² -
1788325204 22.78° C 73% 1012.8 hPa 0 mm - 0 W/m² -

* Rain latest hour (hover to see other rain measurements)
** Current wind speed in m/s (hover to see current wind gust speed)